MST,Max TemperatureF,Mean TemperatureF,Min TemperatureF,Max Dew PointF,MeanDew PointF,Min DewpointF,Max Humidity, Mean Humidity, Min Humidity, Max Sea Level PressureIn, Mean Sea Level PressureIn, Min Sea Level PressureIn, Max VisibilityMiles, Mean VisibilityMiles, Min VisibilityMiles, Max Wind SpeedMPH, Mean Wind SpeedMPH, Max Gust SpeedMPH,PrecipitationIn, CloudCover, Events, WindDirDegrees
2013-2-1,56,36,16,24,16,7,92,53,14,30.39,30.27,30.17,10,10,10,10,2,16,0.00,0,,339
2013-2-2,51,36,20,26,21,17,92,60,27,30.42,30.32,30.24,10,10,10,12,3,16,0.00,0,,70
2013-2-3,44,36,27,31,27,23,92,69,45,30.24,30.11,30.02,10,10,10,10,3,15,T,7,,107
2013-2-4,50,36,21,28,23,19,92,64,36,30.15,30.09,30.03,10,10,10,15,4,18,0.00,0,,70
2013-2-5,54,37,19,23,19,16,91,58,24,30.16,30.05,29.94,10,10,10,15,3,20,0.00,0,,202
2013-2-6,48,37,25,34,27,20,100,70,39,30.06,29.98,29.89,10,10,5,21,4,26,0.02,3,Snow,241
2013-2-7,48,34,19,30,22,17,92,65,37,30.18,30.08,29.94,10,10,10,14,2,18,0.00,0,,195
2013-2-8,40,33,26,29,22,9,92,67,42,29.95,29.76,29.65,10,10,2,38,16,51,T,5,Snow,213
2013-2-9,26,23,19,21,18,14,96,80,63,29.94,29.74,29.60,10,3,0,25,14,33,0.27,8,Fog-Snow,231
2013-2-10,25,15,5,21,18,1,92,87,81,30.04,29.88,29.80,10,3,0,22,10,30,0.19,7,Fog-Snow,234
2013-2-11,27,12,-3,19,9,-7,100,78,55,30.26,30.06,29.93,10,7,0,14,2,17,0.02,4,Snow,63
2013-2-12,37,15,-8,14,3,-13,88,63,38,30.41,30.32,30.22,10,10,7,16,2,20,0.00,0,,62
2013-2-13,40,21,1,17,6,-3,88,63,37,30.36,30.23,30.15,10,6,0,15,4,20,0.00,0,Fog,64
2013-2-14,41,25,8,19,14,4,84,62,40,30.29,30.23,30.18,10,10,10,25,8,31,0.00,0,,69
2013-2-15,47,35,23,18,10,-1,58,39,20,30.40,30.30,30.22,10,10,10,23,12,29,0.00,0,,63
2013-2-16,52,33,13,14,9,1,80,48,16,30.48,30.30,30.11,10,10,9,13,4,16,0.00,0,,69
2013-2-17,48,33,17,16,11,6,74,46,18,30.09,29.93,29.81,10,10,10,28,9,36,0.00,0,,234
2013-2-18,47,32,17,16,13,4,80,49,17,30.07,30.01,29.94,10,10,10,17,3,21,0.00,0,,226
2013-2-19,43,31,19,21,15,12,84,57,30,29.95,29.78,29.52,10,10,10,28,11,38,0.00,0,,217
2013-2-20,31,25,19,25,21,14,100,79,58,29.79,29.58,29.46,10,3,0,28,11,33,0.33,8,Fog-Snow,218
2013-2-21,28,20,12,22,20,11,100,88,75,30.01,29.86,29.76,10,7,0,21,10,24,0.02,7,Fog-Snow,227
2013-2-22,36,22,7,12,7,0,92,60,28,30.14,30.06,29.99,10,10,10,14,5,20,0.00,0,,258
2013-2-23,37,24,10,22,15,6,81,64,47,30.12,29.94,29.80,10,8,2,26,11,33,0.01,3,Snow,243
2013-2-24,29,21,13,16,8,1,84,59,33,30.06,29.89,29.77,10,9,2,22,9,35,T,6,Snow,18
2013-2-25,42,25,8,14,8,2,73,46,18,30.23,30.09,29.99,10,10,10,21,7,26,0.00,0,,213
2013-2-26,39,29,18,10,3,-3,67,44,20,30.12,29.99,29.88,10,10,10,21,8,29,0.00,0,,33
2013-2-27,37,29,20,6,1,-8,49,35,20,30.29,30.22,30.12,10,10,10,20,11,26,0.00,0,,68
2013-2-28,46,34,21,10,0,-7,59,36,13,30.44,30.33,30.25,10,10,10,22,9,29,0.00,0,,71